Location: Brienzwiler
(46.7508°N, 8.1014°E)
Time: 15:48:33
(UTC+00:00)

Cosmos 2237 Rocket - Pass Details

Date: 05 July 2020
Orbit: 834 x 850 km, 71.0° (Epoch: 10 August)

Event Time Altitude Azimuth Distance (km) Brightness Sun altitude
Exits shadow 22:14:36 23° 201° (SSW) 1,716 3.4 -18.4°
Maximum altitude 22:18:14 84° 115° (ESE) 861 2.1 -18.6°
Drops below altitude 10° 22:23:58 10° 28° (NNE) 2,487 5.3 -18.9°
Sets 22:26:26 0° 28° (NNE) 3,426 6.1 -19.0°
